GW5434 Weather Reports


Display with metric or nautical units.
time (UTC)temp
F
wind
direction
speed
MPH
gust
MPH
rain 1hr
in
rain 24hr
in
rain mn
in
humidity
%
barometer
mb
20260506194512 83 188 3.0 9.0 0.00 0.00 0.00 79 1012.8
20260506193014 82 173 3.0 13.0 0.00 0.00 0.00 80 1013.2
20260506191521 81 202 4.0 8.0 0.00 0.00 0.00 81 1013.5
20260506190024 81 145 3.0 9.0 0.00 0.00 0.00 81 1013.7
20260506184507 81 105 3.0 14.0 0.00 0.00 0.00 81 1013.8
20260506183010 81 176 5.0 10.0 0.00 0.00 0.00 80 1013.8
20260506181519 80 102 3.0 11.0 0.00 0.00 0.00 82 1013.9
20260506180020 80 144 4.0 7.0 0.00 0.00 0.00 83 1014.0
20260506174523 80 229 2.0 7.0 0.00 0.00 0.00 83 1014.2
20260506173011 79 201 6.0 13.0 0.00 0.00 0.00 84 1014.3
20260506171514 78 206 4.0 9.0 0.00 0.00 0.00 86 1014.4
20260506170017 77 176 3.0 9.0 0.00 0.00 0.00 87 1014.4
20260506164521 77 148 2.0 8.0 0.00 0.00 0.00 87 1014.4
20260506163025 75 176 1.0 5.0 0.00 0.00 0.00 89 1014.6
20260506161511 75 207 3.0 7.0 0.00 0.00 0.00 89 1014.6
20260506160019 74 174 2.0 5.0 0.00 0.00 0.00 90 1014.6
20260506154524 74 113 2.0 7.0 0.00 0.00 0.00 90 1014.6
20260506153023 73 126 1.0 2.0 0.00 0.00 0.00 91 1014.6
20260506151528 73 116 0.0 2.0 0.00 0.00 0.00 91 1014.6
20260506150012 73 98 0.0 1.0 0.00 0.00 0.00 91 1014.6
20260506144517 73 107 0.0 1.0 0.00 0.00 0.00 90 1014.7
20260506143026 73 105 0.0 1.0 0.00 0.00 0.00 90 1014.6
20260506141503 73 159 0.0 1.0 0.00 0.00 0.00 90 1014.4
20260506140005 73 144 0.0 1.0 0.00 0.00 0.00 89 1014.3
20260506134504 73 173 0.0 0.0 0.00 0.00 0.00 89 1014.2
20260506133007 73 99 1.0 2.0 0.00 0.00 0.00 88 1014.3
20260506131504 72 124 0.0 2.0 0.00 0.00 0.00 89 1014.0
20260506130010 72 135 0.0 0.0 0.00 0.00 0.00 89 1014.0
20260506124505 71 150 0.0 1.0 0.00 0.00 0.00 89 1013.8
20260506123008 71 143 0.0 1.0 0.00 0.00 0.00 89 1013.7
20260506121507 71 115 0.0 1.0 0.00 0.00 0.00 89 1013.4
20260506120008 71 101 0.0 1.0 0.00 0.00 0.00 89 1013.1
20260506114509 70 101 0.0 1.0 0.00 0.00 0.00 89 1013.0
20260506113009 70 101 0.0 1.0 0.00 0.00 0.00 89 1012.9
20260506111509 71 102 1.0 2.0 0.00 0.00 0.00 88 1012.7
20260506110009 70 173 0.0 0.0 0.00 0.00 0.00 88 1012.7
20260506104508 71 174 0.0 1.0 0.00 0.00 0.00 88 1012.8
20260506103023 71 144 0.0 1.0 0.00 0.00 0.00 87 1012.8
20260506101511 71 176 0.0 6.0 0.00 0.00 0.00 87 1012.7
20260506100008 71 176 3.0 6.0 0.00 0.00 0.00 87 1012.3
20260506094525 71 225 2.0 7.0 0.00 0.00 0.00 86 1012.4
20260506093018 71 172 0.0 5.0 0.00 0.00 0.00 86 1012.4
20260506091509 71 221 2.0 7.0 0.00 0.00 0.00 86 1012.2
20260506090013 71 155 3.0 7.0 0.00 0.00 0.00 86 1011.8
20260506084510 70 150 3.0 9.0 0.00 0.00 0.00 87 1011.5
20260506083010 70 204 2.0 6.0 0.00 0.00 0.00 87 1011.6
20260506081512 70 221 2.0 6.0 0.00 0.00 0.00 88 1011.7
20260506073014 70 153 3.0 5.0 0.00 0.00 0.00 88 1012.1
20260506071512 70 133 4.0 7.0 0.00 0.00 0.00 88 1012.0
20260506061524 69 174 2.0 8.0 0.00 0.00 0.00 89 1012.5
20260506044512 69 165 3.0 6.0 0.00 0.00 0.00 87 1012.8
20260506043014 69 158 3.0 7.0 0.00 0.00 0.00 86 1013.0
20260506041508 69 121 3.0 5.0 0.00 0.00 0.00 86 1013.2
20260506040005 70 134 2.0 6.0 0.00 0.00 0.00 85 1013.2
20260506034505 70 135 3.0 6.0 0.00 0.00 0.00 85 1013.2
20260506033010 70 136 3.0 6.0 0.00 0.00 0.00 84 1013.2
20260506031516 71 155 3.0 8.0 0.00 0.00 0.00 83 1013.2
20260506030012 71 104 2.0 9.0 0.00 0.00 0.00 82 1013.0
20260506024505 71 135 4.0 10.0 0.00 0.00 0.00 82 1013.0
20260506023007 72 236 3.0 9.0 0.00 0.00 0.00 81 1013.0
20260506021512 72 82 6.0 11.0 0.00 0.00 0.00 80 1012.9
20260506020010 73 113 5.0 13.0 0.00 0.00 0.00 79 1013.0
20260506014512 73 152 4.0 10.0 0.00 0.00 0.00 78 1012.9
20260506013004 73 136 4.0 11.0 0.00 0.00 0.00 78 1012.8
20260506011509 74 155 5.0 12.0 0.00 0.00 0.00 77 1012.5
20260506010014 74 129 3.0 10.0 0.00 0.00 0.00 76 1012.1
20260506004514 74 133 3.0 12.0 0.00 0.00 0.00 76 1011.9
20260506003014 75 216 4.0 15.0 0.00 0.00 0.00 75 1011.8
20260506001508 75 164 6.0 13.0 0.00 0.00 0.00 74 1011.7
20260506000010 76 172 3.0 13.0 0.00 0.00 0.00 73 1011.7
20260505234532 76 136 4.0 11.0 0.00 0.00 0.00 72 1011.8
20260505233018 76 75 6.0 12.0 0.00 0.00 0.00 72 1011.8
20260505231516 77 121 4.0 9.0 0.00 0.00 0.00 71 1011.9
20260505230012 77 213 3.0 11.0 0.00 0.00 0.00 71 1012.1
20260505224516 78 210 5.0 10.0 0.00 0.00 0.00 70 1011.8
20260505223017 78 147 3.0 7.0 0.00 0.00 0.00 69 1011.9
20260505221518 79 171 5.0 10.0 0.00 0.00 0.00 68 1011.9
20260505220018 79 195 5.0 11.0 0.00 0.00 0.00 68 1011.7
20260505214509 80 153 3.0 11.0 0.00 0.00 0.00 68 1011.9
20260505213015 81 215 6.0 9.0 0.00 0.00 0.00 65 1011.8
20260505211518 81 136 5.0 13.0 0.00 0.00 0.00 64 1011.8
20260505210022 81 171 4.0 10.0 0.00 0.00 0.00 63 1011.9
20260505204525 82 86 4.0 12.0 0.00 0.00 0.00 62 1011.9
20260505203012 83 145 6.0 14.0 0.00 0.00 0.00 59 1011.9
20260505201522 82 185 2.0 9.0 0.00 0.00 0.00 62 1012.0
20260505200024 82 198 4.0 11.0 0.00 0.00 0.00 59 1012.3